Current Version              Previous Version:    01  02  03  04  05  06  07  08  09  10  11  12  13  14  15  16  17  18  19  20  21  22  23  24  25  26  27  28  29  30  
   31  32  33  34  35  36  37  38  39  40  41  42  43  44  45  46  47  48  49  50  51  52  53  54  55  56  57  58  59  60  

[Printable]
780
ASUS44 KLUB 020410
RWRTX
WEST TEXAS WEATHER ROUNDUP
NATIONAL WEATHER SERVICE LUBBOCK TX
1100 PM CDT WED OCT 01 2014

NOTE: "FAIR" INDICATES FEW OR NO CLOUDS BELOW 12,000 FEET WITH NO
SIGNIFICANT WEATHER AND/OR OBSTRUCTIONS TO VISIBILITY.

TXZ004-006>008-010-012-014-016-OKZ002-020500-
TEXAS PANHANDLE/OKLAHOMA PANHANDLE

CITY           SKY/WX    TMP DP  RH WIND       PRES   REMARKS
AMARILLO       CLEAR     63  46  54 S9        29.82S
BORGER         CLEAR     73  42  32 S9        29.78S
CANADIAN       CLEAR     64  47  55 SW6       29.75R
DALHART        CLEAR     59  43  55 S6        29.83R
DUMAS          CLEAR     57  42  57 S8        29.81S
GUYMON         PTCLDY    59  42  53 S6        29.77S
HEREFORD       CLEAR     63  50  63 SW8       29.85R
PAMPA          CLEAR     60  43  54 S10       29.80S
PERRYTON       CLEAR     67  38  33 S3        29.76F
$$

TXZ026-029-035-045-048-020500-
SOUTHERN PANHANDLE/SOUTH PLAINS/ROLLING PLAINS

CITY           SKY/WX    TMP DP  RH WIND       PRES   REMARKS
CHILDRESS      CLEAR     75  60  59 SW7       29.75R
SEMINOLE       CLEAR     65  50  58 SW5       29.87R
LUBBOCK        CLEAR     66  50  56 SW3       29.83S
PLAINVIEW      CLEAR     60  52  74 W8        29.82S
SNYDER         CLEAR     74  56  54 S6        29.81S
$$

TXZ052-054-060>062-072-078-127-140-154-169-020500-
PERMIAN BASIN/CONCHO VALLEY/BIG COUNTRY/EDWARDS PLATEAU

CITY           SKY/WX    TMP DP  RH WIND       PRES   REMARKS
ABILENE        PTCLDY    83  64  52 S15       29.77S
BIG SPRING     CLEAR     78  62  59 SE9       29.85R
BRADY          CLEAR     81  64  57 SE8       29.83R
BROWNWOOD      CLEAR     81  66  61 S13       29.80S
JUNCTION       CLEAR     80  65  59 S3        29.84R
MIDLAND        CLEAR     79  62  56 S10       29.84R
ODESSA         CLEAR     77  54  44 S13       29.85R
SAN ANGELO     CLEAR     80  61  52 S9        29.80R
SONORA         CLEAR     81  64  57 S10       29.89R
SWEETWATER     CLEAR     80  62  53 SW8       29.84R
WINK           CLEAR     72  51  47 CALM      29.82R
$$

TXZ055-058-074-075-080-082-020500-
FAR WEST/SOUTHWEST MOUNTAINS/TRANS PECOS

CITY           SKY/WX    TMP DP  RH WIND       PRES   REMARKS
ALPINE         CLEAR     65  46  50 SW6       30.03R
DRYDEN           N/A     78  65  63 NE7       29.82R
EL PASO        CLEAR     75  32  20 NW7       29.92R
FORT STOCKTON  CLEAR     76  52  43 S13       29.86R
GUADALUPE PASS CLEAR     66  34  30 SW13G20   30.01S
MARFA          CLEAR     57  45  62 N8        30.02R
PECOS          CLEAR     69  52  55 SW7       29.83R
PRESIDIO       FAIR      79  48  34 N8        29.84S
$$

TXZ014-016-019-021>030-083-020500
TEXAS TECH WEST TEXAS MESONET/TEXAS PANHANDLE/NORTHERN SOUTH PLAINS

CITY           SKY/WX    TMP DP  RH WIND       PRES   REMARKS
ABERNATHY 5ENE   N/A     60  51  73 W7        29.84S
AMARILLO 9NNE    N/A     58  47  65 S8        29.80S
AMARILLO 7SSE    N/A     58  45  60 SW6       29.83S
AMHERST 1NE      N/A     64  47  53 SW8       29.85S
BOOTLEG 11WNW    N/A     56  43  62 SW10      29.90R
CANADIAN 6E      N/A     63  44  51 NE3       29.74S
CAPROCK CYN SP   N/A     77  42  29 SW9       29.78S
CHILDRESS 2NNE   N/A     77  61  57 SW9       29.73R
CLARENDON 2WSW   N/A     64  46  50 S6        29.78F
CLAUDE 12SW      N/A     72  45  38 S5        29.82S
DIMMITT 2NE      N/A     66  45  47 SW8       29.85S
FLOYDADA 2NNE    N/A     65  49  56 SW7       29.82S
FRIONA 2NE       N/A     61  42  49 SW10      29.87R
GOODLETT 3W      N/A     77  60  55 S5        29.71R
HART 3N          N/A     56  49  78 SW6       29.85S
HEREFORD 2NW     N/A     61  46  57 SW8       29.85R
MCLEAN 1E        N/A     72  41  32 SW6       29.77S
MEMPHIS 1NE      N/A     64  55  73 NW2       29.74S
OLTON 6S         N/A     58  48  68 SW7       29.84S
PALO DURO SP     N/A     69  45  41 SW8       29.83S
PAMPA 2E         N/A     65  44  46 S8        29.79F
PLAINVIEW 1S     N/A     61  51  70 SW5       29.82F
SILVERTON 7ESE   N/A     59  49  68 SW8       29.81S
TULIA 2ENE       N/A     67  46  47 SW10      29.83S
TURKEY 2WSW      N/A     65  54  66 SW9       29.77R
UMBARGER 3NNE    N/A     62  45  55 SW9       29.84S
$$

TXZ033>036-039>041-045>048-020500
TEXAS TECH WEST TEXAS MESONET/SOUTH PLAINS

CITY           SKY/WX    TMP DP  RH WIND       PRES   REMARKS
AIKEN 3WSW       N/A     59  51  73 SW6       29.84S
ANDREWS 2NE      N/A     72  47  40 SW7       29.85S
ANTON 6SSW       N/A     62  51  66 SW9       29.84S
BROWNFIELD 2S    N/A     64  49  56 SW7       29.85R
DENVR CTY 7WNW   N/A     60  46  59 SW8       29.86S
GAIL 2ESE        N/A     71  55  58 S6        29.80R
LAMESA 2SE       N/A     64  54  69 SW5       29.83S
LEVELLAND 4S     N/A     59  49  70 SW8       29.85R
LUBBOCK 3WNW     N/A     62  46  56 SW2       29.84R
MORTON 1ENE      N/A     60  49  66 SW5       29.86S
ODONNELL 1N      N/A     65  53  65 S6        29.83S
RALLS 1SE        N/A     64  53  68 SW3       29.84R
REESE CENTER     N/A     62  50  64 W5        29.84S
SEMINOLE 2NNE    N/A     69  46  44 SW6       29.85S
SLATON 2NE       N/A     61  53  75 SW7       29.83S
SNYDER 3E        N/A     76  55  48 S8        29.80S
SUNDOWN 8SW      N/A     59  49  67 SW10      29.86R
TAHOKA 3NNE      N/A     61  53  75 W5        29.83S
WOLFFORTH 6SSW   N/A     62  53  71 SW6       29.84S
$$

TXZ031-032-036>038-042>044-020500-
TEXAS TECH WEST TEXAS MESONET/ROLLING PLAINS

CITY           SKY/WX    TMP DP  RH WIND       PRES   REMARKS
ASPERMONT 3NE    N/A     77  65  66 S7        29.74S
FLUVANNA 3WNW    N/A     71  53  52 SW7       29.81S
GRAHAM 5SSW      N/A     73  50  43 SW10      29.81S
GUTHRIE 10WSW    N/A     73  60  62 S8        29.74S
HASKELL 1NW      N/A     82  63  52 S9        29.73S
JAYTON 1SSE      N/A     75  58  55 S3        29.76S
KNOX CITY 3NW    N/A     78  61  55 S7        29.73R
LK A HENRY 1NW   N/A     72  55  54 SW7       29.78S
NORTHFIELD 1S    N/A     70  62  73 SW7       29.75R
ODELL 4ENE       N/A     81  63  54 SE13      29.71S
PADUCAH 10SW     N/A     73  61  66 SW9       29.74S
POST 1NE         N/A     75  50  40 SW7       29.80R
RRING SPRGS 3N   N/A     65  56  71 W6        29.79S
SEYMOUR 3NW      N/A     82  64  54 SE13      29.72R
SPUR 1W          N/A     66  58  74 W2        29.77S
WEINERT 2NNE     N/A     80  66  62 S9        29.73S
WHITE RVR 6NE    N/A     68  49  50 W6        29.80S
$$

TXZ052-054-060>062-072-078-127-140-154-169-020500-
TEXAS TECH WEST TEXAS MESONET/PERMIAN BASIN/
CONCHO VALLEY/BIG COUNTRY/EDWARDS PLATEAU

CITY           SKY/WX    TMP DP  RH WIND       PRES   REMARKS
COYANOSA 2N      N/A     74  62  67 SE7       29.82S
JUNCTION 1SSW    N/A     76  66  69 S3        29.85R
MERTZON 3NNE     N/A     78  62  59 S7        29.84R
SAN ANGELO 7NW   N/A     77  58  52 SE6       29.81S
STRLNG CT 4WSW   N/A     80  64  58 S15       29.83R
ST LAWRNCE 5SW   N/A     77  62  59 S13       29.85R
SWEETWATR 11SW   N/A     76  64  65 S9        29.83R
WALL 1E          N/A     79  62  56 S9        29.81S
$$

TXZ055-058-074-075-080-082-020500-
TEXAS TECH WEST TEXAS MESONET/FAR WEST/SOUTHWEST MOUNTAINS/TRANS PECOS

CITY           SKY/WX    TMP DP  RH WIND       PRES   REMARKS
PRSMN GAP BBNP   N/A     76  46  34 N2        29.85R
GUADLPE MTN NP   N/A     69  32  25 SW10      30.01F
$$